Location: LDNL
(36.4545°S, 141.6685°E)
Time: 11:30:03
(UTC+10:00)

Explorer 7 - Pass Details

Date: 13 August 2022
Orbit: 482 x 668 km, 50.3° (Epoch: 26 September)

Event Time Altitude Azimuth Distance (km) Brightness Sun altitude
Rises 21:01:16 0° 244° (WSW) 2,993 11.5 -37.2°
Reaches altitude 10° 21:04:40 10° 220° (SW) 2,053 10.2 -37.9°
Enters shadow 21:04:45 10° 219° (SW) 2,036 10.2 -37.9°
Maximum altitude 21:07:20 15° 186° (S) 1,732 - -38.4°
Drops below altitude 10° 21:09:56 10° 151° (SSE) 1,995 - -38.9°
Sets 21:13:09 0° 127° (SE) 2,855 - -39.5°
